Location: Krakow
(50.0830°N, 19.9170°E)
Time: 04:26:41
(UTC+02:00)

ARIANE 6 FM1 Upper Stage - Visible Passes

Search period start: 16 April 2026 00:00
Search period end: 26 April 2026 00:00
Orbit: 524 x 604 km, 62.0° (Epoch: 15 April)

Date Brightness Start Highest point End Pass type
(mag) Time Alt. Az. Time Alt. Az. Time Alt. Az.
16 Apr 4.5 01:18:37 10° NW 01:20:55 28° N 01:20:55 28° N visible
16 Apr 4.4 20:18:04 10° W 20:21:50 34° NNW 20:25:33 10° NE visible
16 Apr 5.4 21:59:18 10° NW 22:01:52 16° N 22:04:25 10° NNE visible
16 Apr 5.2 23:39:26 10° NNW 23:42:14 18° NNE 23:44:08 13° NE visible
17 Apr 4.5 01:18:11 10° NW 01:20:05 25° NNW 01:20:05 25° NNW visible
17 Apr 4.7 20:18:00 10° W 20:21:34 28° NNW 20:25:06 10° NNE visible
17 Apr 5.4 21:59:16 10° NW 22:01:43 15° N 22:04:08 10° NNE visible
17 Apr 4.9 23:39:02 10° NNW 23:42:03 20° NNE 23:43:22 17° NE visible
18 Apr 4.7 01:17:45 10° NW 01:19:19 22° NW 01:19:19 22° NW visible
18 Apr 5.0 20:17:59 10° W 20:21:20 24° NNW 20:24:38 10° NNE visible
18 Apr 5.4 21:59:11 10° NW 22:01:34 15° N 22:03:57 10° NE visible
18 Apr 4.6 23:38:37 10° NNW 23:41:51 23° NNE 23:42:38 21° NE visible
19 Apr 4.8 01:17:20 10° NW 01:18:36 19° NW 01:18:36 19° NW visible
19 Apr 5.1 20:18:00 10° WNW 20:21:07 21° NNW 20:24:13 10° NNE visible
19 Apr 5.3 21:59:01 10° NNW 22:01:26 15° N 22:03:49 10° NE visible
19 Apr 4.3 23:38:10 10° NNW 23:41:37 27° NNE 23:41:58 26° NE visible
20 Apr 4.9 01:16:59 10° NW 01:17:54 16° NW 01:17:54 16° NW visible
20 Apr 5.2 20:18:01 10° WNW 20:20:56 18° NNW 20:23:48 10° NNE visible
20 Apr 5.2 21:58:46 10° NNW 22:01:17 16° N 22:03:47 10° NE visible
20 Apr 4.0 23:37:43 10° NW 23:41:18 32° NNE 23:41:18 32° NNE visible
21 Apr 5.1 01:16:39 10° NW 01:17:15 14° WNW 01:17:15 14° WNW visible
21 Apr 5.2 20:18:03 10° NW 20:20:44 17° NNW 20:23:26 10° NNE visible
21 Apr 5.1 21:58:27 10° NNW 22:01:07 17° NNE 22:03:46 10° NE visible
21 Apr 3.8 23:37:16 10° NW 23:40:40 39° NNE 23:40:40 39° NNE visible
22 Apr 5.3 01:16:22 10° WNW 01:16:38 11° WNW 01:16:38 11° WNW visible
22 Apr 5.2 20:18:02 10° NW 20:20:35 16° N 20:23:06 10° NNE visible
22 Apr 4.9 21:58:05 10° NNW 22:00:57 18° NNE 22:03:46 10° ENE visible
22 Apr 3.5 23:36:49 10° NW 23:40:04 46° N 23:40:04 46° N visible
23 Apr 5.2 20:17:59 10° NW 20:20:25 15° N 20:22:50 10° NNE visible
23 Apr 4.7 21:57:40 10° NNW 22:00:44 21° NNE 22:03:31 11° ENE visible
23 Apr 3.3 23:36:23 10° NW 23:39:29 50° NNW 23:39:29 50° NNW visible
24 Apr 5.2 20:17:52 10° NW 20:20:16 15° N 20:22:39 10° NE visible
24 Apr 4.5 21:57:13 10° NNW 22:00:31 24° NNE 22:02:58 14° ENE visible
24 Apr 3.3 23:35:58 10° NW 23:38:55 48° NW 23:38:55 48° NW visible
25 Apr 4.2 21:56:46 10° NNW 22:00:16 28° NNE 22:02:25 17° ENE visible
25 Apr 3.5 23:35:36 10° NW 23:38:23 41° WNW 23:38:23 41° WNW visible
